This is the latest recevied weather packets stored in our database for station/object DL9BGG-13. If no packets are shown the sender has not sent any weather packets the latest 1 day(s).
| Time | Temp. | Humidity | Pressure | Rain* | Wind** | Luminosity | Snow |
|---|---|---|---|---|---|---|---|
| 1777976082 | 11.11° C | 73% | 1057.5 hPa | 0 mm | 0.45 m/s, 90° | - | - |
| 1777976017 | 11.11° C | 73% | 1057.5 hPa | 0 mm | 2.68 m/s, 22° | - | - |
| 1777975928 | 11.11° C | 74% | 1057.5 hPa | 0 mm | 2.68 m/s, 0° | - | - |
| 1777975854 | 11.11° C | 74% | 1057.5 hPa | 0 mm | 2.24 m/s, 90° | - | - |
| 1777975774 | 11.11° C | 74% | 1057.5 hPa | 0 mm | 2.68 m/s, 67° | - | - |
| 1777975700 | 11.11° C | 74% | 1057.5 hPa | 0 mm | 1.34 m/s, 22° | - | - |
| 1777975627 | 11.11° C | 74% | 1057.5 hPa | 0 mm | 3.13 m/s, 45° | - | - |
| 1777975563 | 11.11° C | 75% | 1057.5 hPa | 0 mm | 4.92 m/s, 22° | - | - |
| 1777975498 | 11.11° C | 74% | 1057.5 hPa | 0 mm | 2.68 m/s, 22° | - | - |
| 1777975418 | 11.11° C | 74% | 1057.6 hPa | 0 mm | 0.89 m/s, 22° | - | - |
| 1777975343 | 11.11° C | 74% | 1057.6 hPa | 0 mm | 3.13 m/s, 67° | - | - |
| 1777975270 | 11.11° C | 74% | 1057.5 hPa | 0 mm | 3.13 m/s, 22° | - | - |
| 1777975205 | 11.11° C | 75% | 1057.7 hPa | 0 mm | 4.02 m/s, 22° | - | - |
| 1777975126 | 11.11° C | 75% | 1057.7 hPa | 0 mm | 1.34 m/s, 22° | - | - |
| 1777975061 | 11.11° C | 75% | 1057.8 hPa | 0 mm | 0.89 m/s, 22° | - | - |
| 1777974996 | 11.11° C | 75% | 1057.7 hPa | 0 mm | 0.89 m/s, 22° | - | - |
| 1777974921 | 11.11° C | 74% | 1057.8 hPa | 0 mm | 1.79 m/s, 22° | - | - |
| 1777974847 | 11.11° C | 74% | 1057.8 hPa | 0 mm | 2.24 m/s, 67° | - | - |
| 1777974767 | 11.11° C | 74% | 1057.9 hPa | 0 mm | 4.02 m/s, 0° | - | - |
| 1777974702 | 11.11° C | 74% | 1057.8 hPa | 0 mm | 2.68 m/s, 22° | - | - |
| 1777974629 | 11.11° C | 75% | 1057.9 hPa | 0 mm | 2.24 m/s, 22° | - | - |
| 1777974563 | 11.11° C | 75% | 1057.9 hPa | 0 mm | 0.89 m/s, 22° | - | - |
| 1777974490 | 11.11° C | 75% | 1057.9 hPa | 0 mm | 2.24 m/s, 90° | - | - |
| 1777974425 | 11.11° C | 75% | 1057.9 hPa | 0 mm | 1.79 m/s, 45° | - | - |
| 1777974352 | 11.11° C | 75% | 1057.9 hPa | 0 mm | 3.13 m/s, 0° | - | - |
* Rain latest hour (hover to see other rain measurements)
** Current wind speed in m/s (hover to see current wind gust speed)